Location: Star Hoppers Observatory
(42.7905°N, 83.6127°W)
Time: 18:10:47
(UTC-05:00)

Daily predictions for brighter satellites

Satellite Brightness Start Highest point End
(mag) Time Altitude Azimuth Time Altitude Azimuth Time Altitude Azimuth
Cosmos 44 4.2 18:37:50 10° NW 18:42:49 58° WSW 18:47:59 10° SSE
Cosmos 2082 4.4 18:37:43 10° SW 18:43:14 59° WNW 18:48:50 10° NNE
ATLAS 3B R/B 4.4 18:37:31 10° W 18:43:40 30° NW 18:49:38 10° NNE
ALOS 2.3 18:40:15 10° SSE 18:44:56 85° ENE 18:49:38 10° NNW
Cosmos 1908 Rocket 3.7 18:43:31 10° S 18:47:52 55° E 18:52:15 10° NNE
MOS 1 4.3 18:44:10 10° SSE 18:49:49 78° ENE 18:55:32 10° NNW
YAOGAN 1 3.2 18:46:02 10° S 18:50:19 62° W 18:54:37 10° NNW
Cosmos 1733 Rocket 3.8 18:46:13 10° SSW 18:50:26 56° W 18:54:43 10° N
Okean 1 3.6 18:50:04 10° N 18:53:55 44° ENE 18:57:43 10° SSE
Meteor 1-14 Rocket 4.3 18:49:18 10° S 18:55:06 84° E 19:01:05 10° NNE
MONITOR-E 4.4 18:55:01 10° S 18:58:02 72° WSW 19:01:04 10° NNW
ATLAS CENTAUR R/B 2.9 18:56:52 10° N 18:59:57 20° NE 19:02:49 11° E
MOS 1-B Rocket 4.1 18:54:01 10° SSE 19:00:12 80° WSW 19:05:53 10° NNW
Cosmos 2227 4.4 19:01:28 10° S 19:06:58 51° ESE 19:12:28 10° NE
SKYMED 2 4.3 19:02:52 10° N 19:07:08 57° WNW 19:11:23 10° SSW
Cosmos 1633 2.9 19:03:40 10° SSW 19:07:12 68° W 19:10:47 10° N
Cosmos 1048 Rocket 4.0 19:02:04 10° SSW 19:07:24 86° ESE 19:12:41 10° NNE
Landsat 4 3.6 19:03:46 10° NNE 19:07:32 84° ESE 19:11:18 10° SSW
EO 1 Del DPAF 3.2 19:04:05 10° NNE 19:07:55 68° ESE 19:11:42 10° S
Meteor 2-4 Rocket 4.4 19:03:49 10° N 19:08:56 32° ENE 19:13:53 10° SE
Cosmos 1891 Rocket 4.4 19:03:27 10° N 19:09:41 79° E 19:15:44 10° S
Cosmos 2034 Rocket 4.0 19:04:58 10° N 19:11:22 69° E 19:17:40 10° SSE
Meteor 1-18 Rocket 4.3 19:07:37 10° NNW 19:13:13 81° W 19:18:44 10° S
CZ-4 R/B 4.3 19:10:16 10° SSW 19:13:25 22° W 19:16:33 10° NW
Cosmos 1975 Rocket 3.2 19:09:15 10° N 19:13:38 54° E 19:18:00 10° SSE
Meteor 1-25 Rocket 4.5 19:09:24 10° SSW 19:14:56 74° W 19:20:32 10° N
Cosmos 1437 Rocket 2.8 19:15:05 10° S 19:19:08 75° E 19:23:15 10° NNE
Cosmos 2251 Rocket 4.4 19:15:42 10° SSE 19:19:54 25° E 19:24:06 10° NE
Meteor 1-19 Rocket 4.2 19:16:20 10° N 19:21:47 57° ENE 19:27:15 10° SSE
SeaSat 1 3.3 19:21:53 16° ESE 19:25:03 31° NE 19:29:22 10° N
Cosmos 1536 3.8 19:23:41 10° SE 19:27:01 25° E 19:30:22 10° NNE
SPOT 3 Rocket 4.1 19:21:58 10° S 19:27:07 64° WSW 19:32:20 10° NNW
Cosmos 1943 3.6 19:22:16 10° NNW 19:27:38 42° ENE 19:32:09 14° SE
Lacrosse 5 rocket 3.3 19:26:43 10° SSE 19:27:09 11° SE 19:27:09 11° SE
Cosmos 1184 Rocket 3.3 19:28:07 10° N 19:31:11 35° ENE 19:32:30 24° ESE
USA 215 3.9 19:27:29 15° ENE 19:32:10 35° SE 19:38:01 10° SSW
Meteor 1-11 Rocket 3.9 19:27:57 10° SSE 19:33:19 49° E 19:38:48 10° NNE
ERS-2 2.2 19:35:38 10° S 19:39:18 77° WSW 19:43:00 10° NNW
Resurs 01 Rocket 2.4 19:38:44 26° E 19:39:53 30° ENE 19:43:45 10° N
Gbstr 26 Del rocket 2.6 19:38:13 10° WSW 19:41:57 85° NNW 19:43:57 27° NE
Cosmos 1536 Rocket 4.1 19:40:04 10° N 19:44:08 35° ENE 19:45:08 31° ESE
Cosmos 1782 Rocket 4.2 19:41:48 10° SSW 19:46:10 60° W 19:50:32 10° N
SL-16 R/B 4.5 19:44:22 10° NW 19:48:57 26° WSW 19:53:31 10° SSW
OE (NEXTSAT) 4.5 19:46:49 10° W 19:50:22 70° NNW 19:51:24 42° NE
Envisat 2.9 19:46:21 10° SSE 19:51:23 67° ENE 19:56:27 10° N
CRYOSAT 2 4.3 19:47:34 10° N 19:52:28 89° E 19:57:19 10° S
FREGAT/IRIS 4.1 19:50:29 10° SSW 19:53:16 37° W 19:56:05 10° NNW
HJ-1C 3.9 19:52:06 10° S 19:55:29 62° W 19:58:52 10° NNW
Cosmos 494 Rocket 3.9 19:52:28 10° SSW 19:57:42 89° WNW 20:02:54 10° NNE
Cosmos 1939 Rocket 3.3 19:59:32 41° ENE 19:59:32 41° ENE 20:03:10 10° N
SL-8 R/B 4.5 19:55:15 10° WNW 19:59:49 42° N 20:01:40 29° NE
CENTAUR R/B 3.9 19:55:14 10° WSW 20:00:58 38° NW 20:07:30 10° NNE
CZ-4C R/B 2.9 19:53:56 10° NNW 20:01:00 62° NE 20:05:22 28° ESE
OAO 2 Rocket 4.5 19:58:30 10° WSW 20:02:50 30° S 20:04:29 25° SSE
Meteor 1-23 Rocket 4.3 20:00:13 10° N 20:06:01 60° ENE 20:09:45 22° SSE
USA 267 4.1 20:03:53 25° ENE 20:06:33 35° NNE 20:12:21 10° NW
Cosmos 1603 4.4 20:02:53 10° NNW 20:08:23 54° WSW 20:13:48 10° S
USA 186 2.8 20:10:53 38° N 20:10:53 38° N 20:13:04 10° N
SJ-11-01 4.5 20:12:40 49° ENE 20:12:40 49° ENE 20:17:06 10° N
SJ-6B 3.8 20:10:11 10° S 20:13:50 46° W 20:17:36 10° NNW
Thor Agena Rocket 3.6 20:09:20 10° NNE 20:14:26 78° WNW 20:19:27 10° SSW
Okean 2 Rocket 4.1 20:11:16 10° SSW 20:15:30 47° WNW 20:19:47 10° N
Meteor 1-4 Rocket 3.8 20:12:17 10° SSW 20:15:38 40° WNW 20:19:04 10° N
COSMOS 2455 2.9 20:10:45 10° SSW 20:16:47 81° WNW 20:22:51 10° NNE
Cosmos 2263 Rocket 2.0 20:12:55 10° SSW 20:18:28 84° ESE 20:24:07 10° NNE
BREEZE-M DEB (TANK) 3.6 20:17:19 10° SW 20:20:41 82° SE 20:32:02 10° NE
CZ-2D R/B 4.3 20:18:00 10° S 20:21:45 45° W 20:25:30 10° NNW
Cosmos 2151 Rocket 3.8 20:20:50 10° SSW 20:25:18 71° W 20:29:46 10° N
YAOGAN 6 4.5 20:37:32 25° NNW 20:37:32 25° NNW 20:39:08 10° NNW
ATLAS CENTAUR R/B 2.0 20:35:03 10° NW 20:39:07 56° WSW 20:39:07 56° WSW
Spot 2 Rocket 3.4 20:40:28 75° S 20:40:53 84° WSW 20:45:59 10° NNW
Cosmos 2279 Rocket 3.8 20:37:11 10° N 20:43:28 85° E 20:44:58 55° SSE
H-2A R/B 4.1 20:47:16 17° NNE 20:47:16 17° NNE 20:48:48 10° N
SeaSat 1 3.6 21:01:42 37° SW 21:02:27 39° WSW 21:07:04 10° NW
BREEZE-M DEB (TANK) 4.3 20:48:54 10° W 21:06:45 70° N 21:07:23 65° NNE
USA 215 3.3 21:14:51 67° N 21:15:28 71° NW 21:21:58 10° WSW
Resurs 01 Rocket 3.6 21:16:18 26° W 21:16:21 26° W 21:20:04 10° NW
USA 267 4.0 21:51:14 46° NW 21:51:14 46° NW 21:55:38 10° NW
CZ-4C R/B 4.1 21:42:56 10° NW 21:49:26 34° WSW 21:50:37 33° SW
